Powrót do katalogu

BREEZE-M R/B

AktywnyHEO
NORAD 32301·ROCKET BODY·🇷🇺 Russia

Wystrzelony Nov 17, 2007 z Baikonur Cosmodrome

Loading…

Następne Przeloty (najbliższe 24 godziny)

TLE

ŚwieżeSource: Space-Track

Epoka: Sep 9, 2026, 05:47 UTC

1 32301U 07057C   26252.24141872 -.00000159  00000-0  00000-0 0  9990
2 32301  17.9309  11.8922 5146563 319.8873 251.4136  1.90166908130626

Śledź BREEZE-M R/B w czasie rzeczywistym z AllMySat

Download on the App Store